Location: Newark
(21.1200°N, 73.4000°E)
Time: 03:45:26
(UTC+00:00)

Courier 1B Rocket - Pass Details

Date: 18 January 2020
Orbit: 920 x 1202 km, 28.2° (Epoch: 17 February)

Event Time Altitude Azimuth Distance (km) Brightness Sun altitude
Rises 16:21:10 0° 277° (W) 3,577 8.6 -49.1°
Reaches altitude 10° 16:24:05 10° 266° (W) 2,658 7.8 -49.8°
Enters shadow 16:24:17 11° 265° (W) 2,597 7.7 -49.8°
Maximum altitude 16:29:27 28° 209° (SSW) 1,729 - -51.0°
Drops below altitude 10° 16:35:06 10° 152° (SSE) 2,799 - -52.3°
Sets 16:38:16 0° 141° (SE) 3,800 - -53.1°
